Time,TemperatureF,DewpointF,PressureIn,WindDirection,WindDirectionDegrees,WindSpeedMPH,WindSpeedGustMPH,Humidity,HourlyPrecipIn,Conditions,Clouds,dailyrainin,SoftwareType,DateUTC
2013-03-19 00:02:00,23.0,8.0,-100.00,NW,315,17.0,19.0,51,-99.99,,,-99.99,,2013-03-19 05:02:00,
2013-03-19 00:12:00,23.0,8.0,-100.00,NW,315,17.0,19.0,51,-99.99,,,-99.99,,2013-03-19 05:12:00,
2013-03-19 00:22:00,23.0,8.0,-100.00,NW,310,15.0,17.0,52,-99.99,,,-99.99,,2013-03-19 05:22:00,
2013-03-19 00:32:00,22.0,8.0,-100.00,NW,305,11.0,14.0,53,-99.99,,,-99.99,,2013-03-19 05:32:00,
2013-03-19 00:42:00,22.0,8.0,-100.00,NW,305,11.0,14.0,53,-99.99,,,-99.99,,2013-03-19 05:42:00,
2013-03-19 00:52:00,22.0,8.0,-100.00,NW,310,13.0,15.0,54,-99.99,,,-99.99,,2013-03-19 05:52:00,
2013-03-19 01:02:00,22.0,8.0,-100.00,NW,310,13.0,15.0,54,-99.99,,,-99.99,,2013-03-19 06:02:00,
2013-03-19 01:12:00,22.0,8.0,-100.00,NW,310,17.0,22.0,54,-99.99,,,-99.99,,2013-03-19 06:12:00,
2013-03-19 01:22:00,22.0,7.0,-100.00,NW,315,16.0,19.0,52,-99.99,,,-99.99,,2013-03-19 06:22:00,
2013-03-19 01:32:00,21.0,6.0,-100.00,WNW,300,12.0,13.0,53,-99.99,,,-99.99,,2013-03-19 06:32:00,
2013-03-19 01:42:00,21.0,6.0,-100.00,WNW,300,12.0,13.0,53,-99.99,,,-99.99,,2013-03-19 06:42:00,
2013-03-19 01:52:00,21.0,7.0,-100.00,WNW,300,12.0,15.0,55,-99.99,,,-99.99,,2013-03-19 06:52:00,
2013-03-19 02:02:00,21.0,7.0,-100.00,WNW,300,12.0,15.0,55,-99.99,,,-99.99,,2013-03-19 07:02:00,
2013-03-19 02:12:00,21.0,7.0,-100.00,WNW,300,19.0,21.0,54,-99.99,,,-99.99,,2013-03-19 07:12:00,
2013-03-19 02:21:00,21.0,6.0,-100.00,WNW,290,11.0,14.0,54,-99.99,,,-99.99,,2013-03-19 07:21:00,
2013-03-19 02:32:00,21.0,6.0,-100.00,NW,310,17.0,19.0,52,-99.99,,,-99.99,,2013-03-19 07:32:00,
2013-03-19 02:42:00,21.0,6.0,-100.00,NW,310,17.0,19.0,52,-99.99,,,-99.99,,2013-03-19 07:42:00,
2013-03-19 02:52:00,20.0,5.0,-100.00,WNW,300,11.0,14.0,53,-99.99,,,-99.99,,2013-03-19 07:52:00,
2013-03-19 03:02:00,20.0,5.0,-100.00,WNW,300,11.0,14.0,53,-99.99,,,-99.99,,2013-03-19 08:02:00,
2013-03-19 03:12:00,20.0,6.0,-100.00,WNW,290,7.0,10.0,54,-99.99,,,-99.99,,2013-03-19 08:12:00,
2013-03-19 03:22:00,20.0,6.0,-100.00,WNW,300,16.0,19.0,55,-99.99,,,-99.99,,2013-03-19 08:22:00,
2013-03-19 03:32:00,20.0,5.0,-100.00,NW,315,13.0,15.0,53,-99.99,,,-99.99,,2013-03-19 08:32:00,
2013-03-19 03:42:00,20.0,5.0,-100.00,NW,315,13.0,15.0,53,-99.99,,,-99.99,,2013-03-19 08:42:00,
2013-03-19 03:52:00,20.0,5.0,-100.00,WNW,295,13.0,18.0,53,-99.99,,,-99.99,,2013-03-19 08:52:00,
2013-03-19 04:02:00,20.0,5.0,-100.00,WNW,295,13.0,18.0,53,-99.99,,,-99.99,,2013-03-19 09:02:00,
2013-03-19 04:12:00,20.0,6.0,-100.00,WNW,295,13.0,17.0,54,-99.99,,,-99.99,,2013-03-19 09:12:00,
2013-03-19 04:22:00,20.0,5.0,-100.00,NW,315,14.0,17.0,54,-99.99,,,-99.99,,2013-03-19 09:22:00,
2013-03-19 04:32:00,20.0,6.0,-100.00,WNW,300,13.0,16.0,54,-99.99,,,-99.99,,2013-03-19 09:32:00,
2013-03-19 04:42:00,20.0,6.0,-100.00,WNW,300,13.0,16.0,54,-99.99,,,-99.99,,2013-03-19 09:42:00,
2013-03-19 04:52:00,19.0,5.0,-100.00,NW,305,16.0,17.0,54,-99.99,,,-99.99,,2013-03-19 09:52:00,
2013-03-19 05:03:00,19.0,5.0,-100.00,NW,305,16.0,17.0,54,-99.99,,,-99.99,,2013-03-19 10:03:00,
2013-03-19 05:12:00,19.0,5.0,-100.00,NW,320,12.0,17.0,54,-99.99,,,-99.99,,2013-03-19 10:12:00,
2013-03-19 05:23:00,19.0,5.0,-100.00,WNW,300,14.0,16.0,54,-99.99,,,-99.99,,2013-03-19 10:23:00,
2013-03-19 05:32:00,19.0,5.0,-100.00,NW,315,12.0,17.0,54,-99.99,,,-99.99,,2013-03-19 10:32:00,
2013-03-19 05:42:00,19.0,5.0,-100.00,NW,315,12.0,17.0,54,-99.99,,,-99.99,,2013-03-19 10:42:00,
2013-03-19 05:52:00,19.0,4.0,-100.00,NW,305,14.0,17.0,52,-99.99,,,-99.99,,2013-03-19 10:52:00,
2013-03-19 06:02:00,19.0,4.0,-100.00,NW,305,14.0,17.0,52,-99.99,,,-99.99,,2013-03-19 11:02:00,
2013-03-19 06:12:00,19.0,4.0,-100.00,NW,305,14.0,16.0,53,-99.99,,,-99.99,,2013-03-19 11:12:00,
2013-03-19 06:22:00,18.0,4.0,-100.00,NW,320,14.0,19.0,53,-99.99,,,-99.99,,2013-03-19 11:22:00,
2013-03-19 06:32:00,18.0,4.0,-100.00,NW,310,9.0,12.0,54,-99.99,,,-99.99,,2013-03-19 11:32:00,
2013-03-19 06:42:00,18.0,4.0,-100.00,NW,310,9.0,12.0,54,-99.99,,,-99.99,,2013-03-19 11:42:00,
2013-03-19 06:52:00,18.0,4.0,-100.00,NW,315,10.0,11.0,54,-99.99,,,-99.99,,2013-03-19 11:52:00,
2013-03-19 07:02:00,18.0,4.0,-100.00,NW,315,10.0,11.0,54,-99.99,,,-99.99,,2013-03-19 12:02:00,
2013-03-19 07:12:00,18.0,4.0,-100.00,NW,305,10.0,12.0,54,-99.99,,,-99.99,,2013-03-19 12:12:00,
2013-03-19 07:22:00,17.0,3.0,-100.00,NW,310,8.0,11.0,54,-99.99,,,-99.99,,2013-03-19 12:22:00,
2013-03-19 07:33:00,17.0,4.0,-100.00,WNW,300,8.0,11.0,55,-99.99,,,-99.99,,2013-03-19 12:33:00,
2013-03-19 07:42:00,17.0,4.0,-100.00,WNW,300,8.0,11.0,55,-99.99,,,-99.99,,2013-03-19 12:42:00,
2013-03-19 07:52:00,18.0,5.0,-100.00,WNW,290,11.0,12.0,56,-99.99,,,-99.99,,2013-03-19 12:52:00,
2013-03-19 08:02:00,18.0,5.0,-100.00,WNW,290,11.0,12.0,56,-99.99,,,-99.99,,2013-03-19 13:02:00,
2013-03-19 08:12:00,18.0,5.0,-100.00,WNW,300,12.0,14.0,56,-99.99,,,-99.99,,2013-03-19 13:12:00,
2013-03-19 08:22:00,18.0,5.0,-100.00,NW,320,10.0,11.0,56,-99.99,,,-99.99,,2013-03-19 13:22:00,
2013-03-19 08:32:00,19.0,4.0,-100.00,NW,310,14.0,19.0,53,-99.99,,,-99.99,,2013-03-19 13:32:00,
2013-03-19 08:42:00,19.0,4.0,-100.00,NW,310,14.0,19.0,53,-99.99,,,-99.99,,2013-03-19 13:42:00,
2013-03-19 08:52:00,20.0,6.0,-100.00,NW,310,12.0,14.0,53,-99.99,,,-99.99,,2013-03-19 13:52:00,
2013-03-19 09:02:00,20.0,6.0,-100.00,NW,310,12.0,14.0,53,-99.99,,,-99.99,,2013-03-19 14:02:00,
2013-03-19 09:12:00,20.0,6.0,-100.00,NW,310,12.0,14.0,53,-99.99,,,-99.99,,2013-03-19 14:12:00,
2013-03-19 09:22:00,21.0,5.0,-100.00,NW,320,12.0,15.0,51,-99.99,,,-99.99,,2013-03-19 14:22:00,
2013-03-19 09:32:00,21.0,5.0,-100.00,NW,320,14.0,17.0,49,-99.99,,,-99.99,,2013-03-19 14:32:00,
2013-03-19 09:42:00,21.0,5.0,-100.00,NW,320,14.0,17.0,49,-99.99,,,-99.99,,2013-03-19 14:42:00,
2013-03-19 09:52:00,22.0,4.0,-100.00,NNW,330,12.0,15.0,46,-99.99,,,-99.99,,2013-03-19 14:52:00,
2013-03-19 10:02:00,22.0,4.0,-100.00,NNW,330,12.0,15.0,46,-99.99,,,-99.99,,2013-03-19 15:02:00,
2013-03-19 10:12:00,22.0,4.0,-100.00,NNW,335,12.0,13.0,46,-99.99,,,-99.99,,2013-03-19 15:12:00,
2013-03-19 10:22:00,22.0,4.0,-100.00,NW,310,12.0,14.0,46,-99.99,,,-99.99,,2013-03-19 15:22:00,
2013-03-19 10:33:00,22.0,3.0,-100.00,NNW,335,16.0,17.0,44,-99.99,,,-99.99,,2013-03-19 15:33:00,
2013-03-19 10:43:00,22.0,3.0,-100.00,NNW,335,16.0,17.0,44,-99.99,,,-99.99,,2013-03-19 15:43:00,
2013-03-19 10:53:00,24.0,5.0,-100.00,NW,310,11.0,12.0,44,-99.99,,,-99.99,,2013-03-19 15:53:00,
2013-03-19 11:03:00,24.0,5.0,-100.00,NW,310,11.0,12.0,44,-99.99,,,-99.99,,2013-03-19 16:03:00,
2013-03-19 11:13:00,24.0,5.0,-100.00,NW,310,11.0,12.0,44,-99.99,,,-99.99,,2013-03-19 16:13:00,
2013-03-19 11:23:00,24.0,4.0,-100.00,NNW,330,15.0,16.0,42,-99.99,,,-99.99,,2013-03-19 16:23:00,
2013-03-19 11:34:00,25.0,4.0,-100.00,NW,320,12.0,15.0,41,-99.99,,,-99.99,,2013-03-19 16:34:00,
2013-03-19 11:43:00,25.0,4.0,-100.00,NW,320,12.0,15.0,41,-99.99,,,-99.99,,2013-03-19 16:43:00,
2013-03-19 11:54:00,27.0,6.0,-100.00,NW,315,7.0,12.0,40,-99.99,,,-99.99,,2013-03-19 16:54:00,
2013-03-19 12:03:00,27.0,6.0,-100.00,NW,315,7.0,12.0,40,-99.99,,,-99.99,,2013-03-19 17:03:00,
2013-03-19 12:13:00,27.0,6.0,-100.00,West,275,7.0,9.0,40,-99.99,,,-99.99,,2013-03-19 17:13:00,
2013-03-19 12:23:00,27.0,5.0,-100.00,WNW,295,5.0,7.0,39,-99.99,,,-99.99,,2013-03-19 17:23:00,
2013-03-19 12:34:00,29.0,6.0,-100.00,West,280,7.0,11.0,37,-99.99,,,-99.99,,2013-03-19 17:34:00,
2013-03-19 12:43:00,29.0,6.0,-100.00,West,280,7.0,11.0,37,-99.99,,,-99.99,,2013-03-19 17:43:00,
2013-03-19 12:52:00,31.0,6.0,-100.00,NW,310,4.0,6.0,36,-99.99,,,-99.99,,2013-03-19 17:52:00,
2013-03-19 13:03:00,31.0,6.0,-100.00,NW,310,4.0,6.0,36,-99.99,,,-99.99,,2013-03-19 18:03:00,
2013-03-19 13:13:00,30.0,7.0,-100.00,West,280,7.0,9.0,38,-99.99,,,-99.99,,2013-03-19 18:13:00,
2013-03-19 13:23:00,32.0,8.0,-100.00,WNW,285,4.0,6.0,37,-99.99,,,-99.99,,2013-03-19 18:23:00,
2013-03-19 13:33:00,31.0,6.0,-100.00,West,270,7.0,9.0,36,-99.99,,,-99.99,,2013-03-19 18:33:00,
2013-03-19 13:42:00,31.0,6.0,-100.00,West,270,7.0,9.0,36,-99.99,,,-99.99,,2013-03-19 18:42:00,
2013-03-19 13:52:00,33.0,9.0,-100.00,West,270,4.0,6.0,36,-99.99,,,-99.99,,2013-03-19 18:52:00,
2013-03-19 14:02:00,33.0,9.0,-100.00,West,270,4.0,6.0,36,-99.99,,,-99.99,,2013-03-19 19:02:00,
2013-03-19 14:12:00,32.0,7.0,-100.00,WSW,245,9.0,11.0,34,-99.99,,,-99.99,,2013-03-19 19:12:00,
2013-03-19 14:22:00,34.0,7.0,-100.00,NW,320,6.0,7.0,33,-99.99,,,-99.99,,2013-03-19 19:22:00,
2013-03-19 14:32:00,34.0,7.0,-100.00,WNW,290,9.0,11.0,32,-99.99,,,-99.99,,2013-03-19 19:32:00,
2013-03-19 14:42:00,34.0,7.0,-100.00,WNW,290,9.0,11.0,32,-99.99,,,-99.99,,2013-03-19 19:42:00,
2013-03-19 14:52:00,34.0,6.0,-100.00,West,275,9.0,11.0,31,-99.99,,,-99.99,,2013-03-19 19:52:00,
2013-03-19 15:02:00,34.0,6.0,-100.00,West,275,9.0,11.0,31,-99.99,,,-99.99,,2013-03-19 20:02:00,
2013-03-19 15:12:00,35.0,7.0,-100.00,West,275,6.0,9.0,30,-99.99,,,-99.99,,2013-03-19 20:12:00,
2013-03-19 15:22:00,35.0,6.0,-100.00,WNW,290,9.0,11.0,30,-99.99,,,-99.99,,2013-03-19 20:22:00,
2013-03-19 15:32:00,36.0,7.0,-100.00,West,280,7.0,9.0,30,-99.99,,,-99.99,,2013-03-19 20:32:00,
2013-03-19 15:42:00,36.0,7.0,-100.00,West,280,7.0,9.0,30,-99.99,,,-99.99,,2013-03-19 20:42:00,
2013-03-19 15:52:00,38.0,7.0,-100.00,SW,235,6.0,9.0,28,-99.99,,,-99.99,,2013-03-19 20:52:00,
2013-03-19 16:02:00,38.0,7.0,-100.00,SW,235,6.0,9.0,28,-99.99,,,-99.99,,2013-03-19 21:02:00,
2013-03-19 16:12:00,40.0,9.0,-100.00,West,280,5.0,7.0,28,-99.99,,,-99.99,,2013-03-19 21:12:00,
2013-03-19 16:22:00,41.0,10.0,-100.00,WNW,295,2.0,4.0,28,-99.99,,,-99.99,,2013-03-19 21:22:00,
2013-03-19 16:33:00,39.0,8.0,-100.00,WNW,295,7.0,8.0,27,-99.99,,,-99.99,,2013-03-19 21:33:00,
2013-03-19 16:42:00,39.0,8.0,-100.00,WNW,295,7.0,8.0,27,-99.99,,,-99.99,,2013-03-19 21:42:00,
2013-03-19 16:52:00,39.0,7.0,-100.00,SW,235,9.0,11.0,26,-99.99,,,-99.99,,2013-03-19 21:52:00,
2013-03-19 17:03:00,39.0,7.0,-100.00,SW,235,9.0,11.0,26,-99.99,,,-99.99,,2013-03-19 22:03:00,
2013-03-19 17:12:00,39.0,8.0,-100.00,SW,235,7.0,11.0,27,-99.99,,,-99.99,,2013-03-19 22:12:00,
2013-03-19 17:23:00,39.0,8.0,-100.00,SW,235,7.0,11.0,27,-99.99,,,-99.99,,2013-03-19 22:23:00,
2013-03-19 17:33:00,40.0,10.0,-100.00,NW,310,9.0,11.0,29,-99.99,,,-99.99,,2013-03-19 22:33:00,
2013-03-19 17:43:00,40.0,10.0,-100.00,NW,310,9.0,11.0,29,-99.99,,,-99.99,,2013-03-19 22:43:00,
2013-03-19 17:52:00,41.0,12.0,-100.00,NW,325,4.0,7.0,30,-99.99,,,-99.99,,2013-03-19 22:52:00,
2013-03-19 18:02:00,41.0,12.0,-100.00,NW,325,4.0,7.0,30,-99.99,,,-99.99,,2013-03-19 23:02:00,
2013-03-19 18:12:00,39.0,10.0,-100.00,NNW,340,12.0,14.0,30,-99.99,,,-99.99,,2013-03-19 23:12:00,
2013-03-19 18:22:00,39.0,10.0,-100.00,North,0,7.0,9.0,30,-99.99,,,-99.99,,2013-03-19 23:22:00,
2013-03-19 18:32:00,38.0,11.0,-100.00,NNW,345,9.0,11.0,32,-99.99,,,-99.99,,2013-03-19 23:32:00,
2013-03-19 18:42:00,38.0,11.0,-100.00,NNW,345,9.0,11.0,32,-99.99,,,-99.99,,2013-03-19 23:42:00,
2013-03-19 18:52:00,37.0,10.0,-100.00,NNW,345,11.0,12.0,33,-99.99,,,-99.99,,2013-03-19 23:52:00,
2013-03-19 19:02:00,37.0,10.0,-100.00,NNW,345,11.0,12.0,33,-99.99,,,-99.99,,2013-03-20 00:02:00,
2013-03-19 19:12:00,36.0,11.0,-100.00,NNW,335,8.0,10.0,35,-99.99,,,-99.99,,2013-03-20 00:12:00,
2013-03-19 19:22:00,36.0,11.0,-100.00,NNW,335,8.0,10.0,35,-99.99,,,-99.99,,2013-03-20 00:22:00,
2013-03-19 19:33:00,33.0,11.0,-100.00,North,350,9.0,11.0,39,-99.99,,,-99.99,,2013-03-20 00:33:00,
2013-03-19 19:42:00,33.0,11.0,-100.00,North,350,9.0,11.0,39,-99.99,,,-99.99,,2013-03-20 00:42:00,
2013-03-19 19:52:00,33.0,11.0,-100.00,North,350,8.0,9.0,41,-99.99,,,-99.99,,2013-03-20 00:52:00,
2013-03-19 20:03:00,33.0,11.0,-100.00,North,350,8.0,9.0,41,-99.99,,,-99.99,,2013-03-20 01:03:00,
2013-03-19 20:12:00,32.0,12.0,-100.00,North,350,9.0,9.0,42,-99.99,,,-99.99,,2013-03-20 01:12:00,
2013-03-19 20:22:00,32.0,12.0,-100.00,North,350,9.0,9.0,44,-99.99,,,-99.99,,2013-03-20 01:22:00,
2013-03-19 20:32:00,32.0,13.0,-100.00,NW,320,8.0,9.0,46,-99.99,,,-99.99,,2013-03-20 01:32:00,
2013-03-19 20:42:00,32.0,13.0,-100.00,NW,320,8.0,9.0,46,-99.99,,,-99.99,,2013-03-20 01:42:00,
2013-03-19 20:52:00,31.0,14.0,-100.00,NW,325,9.0,10.0,50,-99.99,,,-99.99,,2013-03-20 01:52:00,
2013-03-19 21:02:00,31.0,14.0,-100.00,NW,325,9.0,10.0,50,-99.99,,,-99.99,,2013-03-20 02:02:00,
2013-03-19 21:12:00,31.0,15.0,-100.00,NNW,340,10.0,12.0,51,-99.99,,,-99.99,,2013-03-20 02:12:00,
2013-03-19 21:22:00,31.0,15.0,-100.00,NNW,335,9.0,11.0,53,-99.99,,,-99.99,,2013-03-20 02:22:00,
2013-03-19 21:32:00,30.0,16.0,-100.00,NNW,335,11.0,15.0,56,-99.99,,,-99.99,,2013-03-20 02:32:00,
2013-03-19 21:42:00,30.0,16.0,-100.00,NNW,335,11.0,15.0,56,-99.99,,,-99.99,,2013-03-20 02:42:00,
2013-03-19 21:52:00,30.0,16.0,-100.00,NNW,335,9.0,11.0,57,-99.99,,,-99.99,,2013-03-20 02:52:00,
2013-03-19 22:02:00,30.0,16.0,-100.00,NNW,335,9.0,11.0,57,-99.99,,,-99.99,,2013-03-20 03:02:00,
2013-03-19 22:12:00,30.0,16.0,-100.00,NNW,335,11.0,12.0,57,-99.99,,,-99.99,,2013-03-20 03:12:00,
2013-03-19 22:22:00,29.0,16.0,-100.00,NW,320,9.0,11.0,57,-99.99,,,-99.99,,2013-03-20 03:22:00,
2013-03-19 22:33:00,29.0,16.0,-100.00,NW,325,9.0,12.0,58,-99.99,,,-99.99,,2013-03-20 03:33:00,
2013-03-19 22:42:00,29.0,16.0,-100.00,NW,325,9.0,12.0,58,-99.99,,,-99.99,,2013-03-20 03:42:00,
2013-03-19 22:53:00,29.0,17.0,-100.00,NW,320,12.0,14.0,61,-99.99,,,-99.99,,2013-03-20 03:53:00,
2013-03-19 23:03:00,29.0,17.0,-100.00,NW,320,12.0,14.0,61,-99.99,,,-99.99,,2013-03-20 04:03:00,
2013-03-19 23:12:00,29.0,18.0,-100.00,NNW,335,11.0,14.0,64,-99.99,,,-99.99,,2013-03-20 04:12:00,
2013-03-19 23:22:00,28.0,18.0,-100.00,NNW,330,14.0,17.0,64,-99.99,,,-99.99,,2013-03-20 04:22:00,
2013-03-19 23:32:00,28.0,17.0,-100.00,NNW,330,17.0,20.0,65,-99.99,,,-99.99,,2013-03-20 04:32:00,
2013-03-19 23:43:00,28.0,17.0,-100.00,NNW,330,17.0,20.0,65,-99.99,,,-99.99,,2013-03-20 04:43:00,
2013-03-19 23:52:00,26.0,16.0,-100.00,NW,325,19.0,23.0,65,-99.99,,,-99.99,,2013-03-20 04:52:00,